STARLINK-1283, 45389

Orbit data source: Space-Track

STARLINK-1283, 45389 is a payload satellite owned by SpaceX/Seattle (US) in LEO that was launched on Wed, 18 Mar 2020 UTC via an FALCON 9 launch vehicle from the Air Force Eastern Test Range (AFETR). Payload-class satellites include a variety of spacecraft equipped with specific instruments for various scientific and technological missions. These include communications satellites like Starlink; space stations such as the ISS; scientific satellites like the Hubble; Earth observation satellites from companies like Planet Labs, Umbra, and HawkEye 360; GPS; miniature CubeSats for education and research; and military/defense satellites.

Loading next visibility...
Identifier
45389, 2020-019AF
Orbit
LEO
Last TLE update
22 hours ago
Origin
Manufacturer
SpaceX/Seattle
Mission
Operational Commercial Communications
Bus & Motor
STARLINK, Unknown motor
Mass
260 kg wet, ~248 kg dry
Launch date (UTC)
2020-03-18 (5 years ago)
Launch vehicle
FALCON 9
Launch site
Air Force Eastern Test Range (AFETR)
Object type
Payload
Rocket body
Debris
Shape & HBR
Box + 1 Pan, 8.86 m
Radar Cross Section
13.562 m², Large (>1 m²)

Expand to show TLE details & history

TLE from 22 hours ago
0 STARLINK-1283
1 45389U 20019AF  25181.52773678  .00000981  00000-0  84725-4 0  9991
2 45389  53.0542 198.6146 0001251  88.4505 271.6627 15.06408405292001
Epoch: 2025-06-30T12:39Z
TLE epoch observation values (Epoch: 2025-06-30T12:39:56.457Z)
Latitude
-0.00006°
Longitude
89.79306°
Altitude
548.04 km
Speed
7.589 km/s
True Right ascension
13h 14m 27s
True Declination
0° 00' 00"
Sunlit
Object was in daylight at epoch
Visualization orbit readout
Latitude
-53.08761°
Longitude
0.98248°
Altitude
566.504 km
Speed
7.577 km/s
Apparent Right ascension
08h 53m 16s
Apparent Declination
-48° 41' 09"
Sunlit
Object is in daylight
Visualization observer readout
Local Sidereal Time
22:12:53
Azimuth
128.344° SE
Elevation
-73.349°
Doppler factor
1
Orbital elements
Apogee altitude
548.323 km
Perigee altitude
546.59 km
Semi-major axis
6,925.594 km
Eccentricity
0.00013
Inclination
53.0542°
RAAN
198.6146°
Arg. of periapsis
88.4505°
True anomaly
Unknown
Mean anomaly
271.6627°
Eccentric anomaly
Unknown
Mean motion
3.7658 °/min
Orbital period
95.6 mins
BSTAR
0.000084725
Loading maneuver chart data...
Loading SW <> Apogee altitude chart data...
Loading historical data...
Loading historical data...
Loading historical data...
Loading historical data...
Loading historical data...
Loading historical data...
Loading historical data...

STARLINK-1283 Visibility forecast

Observer location: undefined°, undefined°

Span
Click to sort rows by Start time (UTC) header in descending order
Start Az.
Max El. time (UTC)
Max El. Az.
Max El.
End time (UTC)
End Az.
7 mins2025-07-01 11:29:24.832Z291.095° WNW2025-07-01 11:32:24.832Z242.679° WSW27.925°2025-07-01 11:36:24.832Z164.776° S
6 mins2025-07-02 03:03:24.832Z196.614° SSW2025-07-02 03:05:24.832Z148.538° SSE34.863°2025-07-02 03:09:24.832Z62.273° ENE
5 mins2025-07-02 04:43:24.832Z285.967° WNW2025-07-02 04:45:24.832Z333.575° NNW26.942°2025-07-02 04:48:24.832Z30.292° NE
6 mins2025-07-02 09:44:24.832Z325.463° NNW2025-07-02 09:47:24.832Z47.607° ENE36.126°2025-07-02 09:50:24.832Z106.312° ESE
|